Weather in Novobachaty

Russia / Kemerovo Oblast     54°15′13″N   86°20′40″E
temp.,
°C
wind,
m/s
gust,
m/s
humid.,
%
clouds,
%
prec.,
mm/h
press.,
hPa
HPBL,
m
2 december, thu
thu201:00−9s3582100 0.0 102967
04:00−10s338483 0.0 102932
07:00−10s348043 0.0 102840
10:00−8s377990 0.0 102787
13:00−2s3878100 0.0 1025193
16:00−3s35812 0.0 102575
19:00−5s497539 0.0 1024107
22:00−7s36735 0.0 102357
3 december, fri
fri301:00−3s512640 0.0 1020166
04:00−4s486623 0.0 1019108
07:00−3s410625 0.0 1016122
10:00−2s5155875 0.0 1015219
13:00+2sw82350100 0.0 1014692
16:00+1sw71863100 0.1 1013645
19:00+1sw81992100 2.3 1013811
22:000sw71592100 2.4 1013803
4 december, sat
sat401:000wsw71493100 3.1 1014733
04:000wsw71491100 0.5 1018858
07:00−2sw81581100 0.6 1021714
10:00−3sw81585100 0.0 1023894
13:00−2wsw81584100 0.1 10241108
16:00−4wsw7148593 0.1 1026894
19:00−5wsw6128799 0.1 1030528
22:00−6wsw51188100 0.1 1032673
5 december, sun
sun501:00−8sw5108918 0.1 1033273
04:00−11ssw2493100 0.0 103572
07:00−12s339596 0.0 103545
10:00−10sse3595100 0.0 103397
13:00−5s37915 0.0 1030244
16:00−6s33935 0.0 102966
19:00−9s349210 0.0 102852
22:00−9s239452 0.0 102643
6 december, mon
mon601:00−9sse239389 0.0 102539
04:00−9s3394100 0.0 102437
07:00−8s3493100 0.0 102253
10:00−7sse2391100 0.0 102152
13:00−2s3886100 0.0 1019281
16:00−3s3785100 0.0 1019187
19:00−4ssw31081100 0.0 1018245
22:00−3sw61482100 0.0 1017536